Weather History for Dubai International Airport, UAE

Change the Weather History Date:

Saturday, August 10, 2013

  Actual Average Record
Temperature  
Mean Temperature 100 °F -  
Max Temperature 107 °F 102 °F - ()
Min Temperature 93 °F 84 °F - ()
Cooling Degree Days 35    
Growing Degree Days 50 (Base 50)    
Moisture  
Dew Point 72 °F    
Average Humidity 40    
Maximum Humidity 56    
Minimum Humidity 22    
Precipitation  
Precipitation 0.00 in 0.00 in - ()
Sea Level Pressure  
Sea Level Pressure 29.43 in    
Wind  
Wind Speed 7 mph ()    
Max Wind Speed 15 mph    
Max Gust Speed -    
Visibility 6.0 miles    
Events      
T = Trace of Precipitation, MM = Missing Value Source: Averaged Metar Reports

Daily Weather History Graph

Daily Weather History Graph

Search for Another Location

Airport:

Trip Planner

Search our weather history database for the weather conditions in past years. The results will help you decide how hot, cold, wet, or windy it might be!

Date:

Astronomy

Aug. 10, 2013 Rise Set
Actual Time 5:49 AM GST 6:57 PM GST
Civil Twilight 5:25 AM GST 7:21 PM GST
Nautical Twilight 4:57 AM GST 7:50 PM GST
Astronomical Twilight 4:27 AM GST 8:19 PM GST
Moon 8:44 AM GST (8/10) 8:56 PM GST (8/10)
Length of Visible Light 13h 55m
Length of Day
13h 07m
Waxing Crescent, 11% of the Moon is Illuminated
Aug 10
Waxing Crescent
Aug 14
First Quarter
Aug 21
Full
Aug 28
Last Quarter
Sep 5
New

Hourly Weather History & Observations

Time (GST) Temp. Heat Index Dew Point Humidity Pressure Visibility Wind Dir Wind Speed Gust Speed Precip Events Conditions
12:00 AM 96.8 °F 109.6 °F 75.2 °F 50% 29.44 in - ENE 4.6 mph - N/A   Clear
1:00 AM 97 °F - 74 °F 39% 29.46 in 6 mi East 5.8 mph - -   Partly Cloudy
1:00 AM 96.8 °F 109.6 °F 75.2 °F 50% 29.44 in - East 5.8 mph - N/A   Clear
2:00 AM 96.8 °F 107.3 °F 73.4 °F 47% 29.42 in - East 4.6 mph - N/A   Clear
3:00 AM 96.8 °F 109.6 °F 75.2 °F 50% 29.42 in - ENE 5.8 mph - N/A   Clear
4:00 AM 96 °F - 75 °F 42% 29.44 in 6 mi ENE 5.8 mph - -   Partly Cloudy
4:00 AM 96.8 °F 109.6 °F 75.2 °F 50% 29.44 in - Variable 5.8 mph - N/A   Clear
5:00 AM 95.0 °F 107.4 °F 75.2 °F 53% 29.44 in - ENE 4.6 mph - N/A   Clear
6:00 AM 95.0 °F 107.4 °F 75.2 °F 53% 29.44 in - ENE 6.9 mph - N/A   Clear
7:00 AM 94 °F - 75 °F 44% 29.47 in 6 mi ENE 5.8 mph - -  
7:00 AM 93.2 °F 105.0 °F 75.2 °F 56% 29.44 in - ENE 5.8 mph - N/A   Clear
8:00 AM 95.0 °F 107.4 °F 75.2 °F 53% 29.47 in - SE 9.2 mph - N/A   Clear
9:00 AM 98.6 °F 107.7 °F 71.6 °F 42% 29.47 in - East 5.8 mph - N/A   Clear
10:00 AM 104.0 °F 110.5 °F 68.0 °F 31% 29.47 in - South 6.9 mph - N/A   Clear
11:00 AM 107.6 °F 112.3 °F 64.4 °F 25% 29.47 in - SW 6.9 mph - N/A   Clear
11:49 AM 104.0 °F 118.9 °F 75.2 °F 40% 29.44 in - NNW 11.5 mph - N/A   Clear
12:00 PM 104.0 °F 118.9 °F 75.2 °F 40% 29.44 in - NNW 11.5 mph - N/A   Clear
1:00 PM 102 °F - 77 °F 36% 29.45 in 6 mi NW 13.8 mph - -  
1:00 PM 102.2 °F 119.3 °F 77.0 °F 45% 29.44 in - NW 13.8 mph - N/A   Clear
2:00 PM 102.2 °F 116.3 °F 75.2 °F 42% 29.42 in - NNW 15.0 mph - N/A   Clear
3:00 PM 102.2 °F 114.4 °F 73.4 °F 40% 29.42 in - NNW 12.7 mph - N/A   Clear
4:00 PM 103 °F - 69 °F 24% 29.40 in 6 mi NNW 13.8 mph - -   Scattered Clouds
4:00 PM 104.0 °F 110.5 °F 68.0 °F 31% 29.39 in - NNW 13.8 mph - N/A   Clear
5:00 PM 102.2 °F 110.0 °F 69.8 °F 35% 29.39 in - NNW 11.5 mph - N/A   Clear
6:00 PM 104.0 °F 110.5 °F 68.0 °F 31% 29.39 in - NNE 11.5 mph - N/A   Clear
7:00 PM 103 °F - 67 °F 22% 29.40 in 6 mi NE 10.4 mph - -   Clear
7:00 PM 102.2 °F 106.9 °F 66.2 °F 31% 29.39 in - NE 10.4 mph - N/A   Clear
8:00 PM 102.2 °F 106.9 °F 66.2 °F 31% 29.42 in - NE 3.5 mph - N/A   Clear
9:00 PM 100.4 °F 107.8 °F 69.8 °F 37% 29.42 in - NNE 6.9 mph - N/A   Clear
10:00 PM 100.4 °F 106.3 °F 68.0 °F 35% 29.47 in - NNE 3.5 mph - N/A   Clear
11:00 PM 100.4 °F 106.3 °F 68.0 °F 35% 29.47 in - Variable 5.8 mph - N/A   Clear